This demonstration page uses our WeatherBlox Daily Observations layout. Learn more.

Left ArrowRight Arrow

31.31129, -92.44514

Hourly Observations for July 4, 2022

Temp ( °F °C ) Dew Point ( °F °C ) Humidity (%) Winds ( mph kmh ) Pressure ( in mb ) Visibility ( mi km ) Precip ( " mm )
12:53 am 00:53 Clear 82 27.8 74 23.3 77 77 SSW 5 7 30.02 1017 10 16 0.00 0.00
1:53 am 01:53 Clear 80 26.7 74 23.3 82 82 S 3 6 30.03 1017 10 16 0.00 0.00
2:53 am 02:53 Clear 80 26.7 74 23.3 82 82 Calm 30.02 1017 10 16 0.00 0.00
3:53 am 03:53 Clear 79 26.1 74 23.3 85 85 SSW 3 6 30.03 1017 10 16 0.00 0.00
4:53 am 04:53 Clear 78 25.6 74 23.3 87 87 Calm 30.04 1017 10 16 0.00 0.00
5:53 am 05:53 Clear 77 25 74 23.3 90 90 S 5 7 30.04 1017 8 13 0.00 0.00
6:53 am 06:53 Sunny 76 24.4 75 23.9 97 97 Calm 30.06 1018 6 10 0.00 0.00
7:53 am 07:53 Sunny 80 26.7 75 23.9 85 85 Calm 30.07 1018 8 13 0.00 0.00
8:53 am 08:53 Sunny 84 28.9 77 25 80 80 Calm 30.09 1019 8 13 0.00 0.00
9:53 am 09:53 Mostly Sunny 87 30.6 76 24.4 70 70 VRB 5 7 30.09 1019 9 14 0.00 0.00
10:53 am 10:53 Mostly Cloudy 89 31.7 75 23.9 63 63 W 5 7 30.09 1019 10 16 0.00 0.00
11:53 am 11:53 Mostly Sunny 92 33.3 74 23.3 56 56 VRB 3 6 30.09 1019 10 16 0.00 0.00
12:53 pm 12:53 Sunny 94 34.4 72 22.2 49 49 Calm 30.07 1018 10 16 0.00 0.00
1:53 pm 13:53 Sunny 96 35.6 73 22.8 47 47 Calm 30.04 1017 10 16 0.00 0.00
2:53 pm 14:53 Sunny 96 35.6 72 22.2 46 46 VRB 3 6 30.01 1016 10 16 0.00 0.00
3:53 pm 15:53 Partly Cloudy 97 36.1 73 22.8 46 46 SSW 5 7 30.01 1016 10 16 0.00 0.00
4:53 pm 16:53 Sunny 98 36.7 72 22.2 43 43 Calm 29.99 1016 10 16 0.00 0.00
5:53 pm 17:53 Sunny 96 35.6 73 22.8 47 47 VRB 6 9 29.99 1016 10 16 0.00 0.00
6:53 pm 18:53 Mostly Cloudy 93 33.9 74 23.3 54 54 SSE 13 20 29.99 1016 10 16 0.00 0.00
7:53 pm 19:53 Sunny 89 31.7 77 25 68 68 S 3 6 29.99 1016 10 16 0.00 0.00
8:53 pm 20:53 Partly Cloudy 87 30.6 77 25 72 72 S 7 11 30.00 1016 10 16 0.00 0.00
9:53 pm 21:53 Clear 85 29.4 76 24.4 75 75 SSW 6 9 30.01 1016 10 16 0.00 0.00
10:53 pm 22:53 Clear 84 28.9 76 24.4 77 77 S 5 7 30.02 1017 10 16 0.00 0.00
11:53 pm 23:53 Clear 84 28.9 75 23.9 74 74 WSW 7 11 30.02 1017 10 16 0.00 0.00

Powered by AerisWeather